Regional Weather Roundup
Issued by NWS

Home | Current Version | Previous Version | Text Only | Print | Product List | Glossary On
Versions: 1 2 3 4 5 6 7 8 9 10 11 12 13 14 15 16 17 18 19 20 21 22 23 24 25 26 27 28
000
ASUS45 KSLC 240410
RWRUT

UTAH REGIONAL WEATHER ROUNDUP
NATIONAL WEATHER SERVICE SALT LAKE CITY UT
900 PM MST TUE JAN 23 2018

UTZ001>011-023>025-240500-

NORTHERN UTAH

CITY           SKY/WX    TMP DP  RH WIND       PRES   REMARKS
BRIGHAM CITY   CLEAR     29  25  86 CALM      30.33S
HILL AFB       CLEAR     31  21  65 E10       30.29F WCI  23
LOGAN          CLEAR     22  17  81 CALM      30.31S
OGDEN          CLEAR     30  22  72 S7        30.29F WCI  23
SALT LAKE CITY PTCLDY    35  24  64 S7        30.30F WCI  29
TOOELE VALLEY  CLEAR     27  21  80 CALM      30.31S
WENDOVER       PTCLDY    24  20  84 CALM      30.31S
HEBER CITY       N/A     16  10  79 E5        30.30S WCI   9
WEST JORDAN    CLEAR     28  21  75 S7        30.31S WCI  20

$$

UTZ011>015-024>027-240500-

CENTRAL/NORTHEAST UTAH

CITY           SKY/WX    TMP DP  RH WIND       PRES   REMARKS
PROVO AIRPORT  CLEAR     22  19  89 CALM      30.35R
MOAB/CANYONLAN CLEAR     26  20  77 W5        30.37R WCI  20
DELTA            N/A     12  10  92 SE6       30.33S VSB 1/2 WCI   3
PRICE          CLEAR     21  16  81 NE8       30.34S WCI  11
ROOSEVELT      CLEAR     18  14  86 SW6       30.41S WCI   9
VERNAL         CLEAR     12   7  80 W3        30.38R

$$

UTZ013>016-019>022-027-240500-

SOUTHERN UTAH

CITY           SKY/WX    TMP DP  RH WIND       PRES   REMARKS
BRYCE CANYON   CLEAR     15  12  88 SW5       30.35R WCI   8
CEDAR CITY     PTCLDY    17  15  92 CALM      30.30S
MILFORD        PTCLDY    13  10  88 W10       30.32F WCI   0
ST GEORGE      CLEAR     41  29  62 E3        30.32R
HANKSVILLE     CLEAR     32  16  51 CALM      30.40S
BLANDING         N/A     22  17  78 N8        30.43R WCI  13

$$

REGIONAL REPORTS     COLORADO/ARIZONA

CITY           SKY/WX    TMP DP  RH WIND       PRES   REMARKS
CRAIG, CO      CLEAR      5   2  87 CALM      30.35S
GRAND JUNCTION CLEAR     22  16  78 E6        30.38S WCI  14
RIFLE, CO      CLEAR     25  18  74 CALM      30.38R
MONTROSE, CO   CLEAR     20  10  65 SE8       30.40R WCI  10
CORTEZ, CO     CLEAR     21  16  81 NE8       30.36R WCI  11
COLORADO CITY    N/A     28  19  69 S6        30.34S WCI  22
PAGE, AZ       CLEAR     36  16  44 S5        30.35R WCI  32
GRAND CANYON   CLEAR     20  13  74 CALM      30.34R
KINGMAN, AZ    CLEAR    N/A N/A N/A E8        30.26S
FLAGSTAFF, AZ  CLEAR     20   8  60 CALM      30.34R

$$

REGIONAL REPORTS    NEVADA/IDAHO/WYOMING

CITY           SKY/WX    TMP DP  RH WIND       PRES   REMARKS
LAS VEGAS, NV  PTCLDY    50  28  42 SW3       30.26R
ELY, NY        CLEAR     15  10  80 SW7       30.28S WCI   5
ELKO, NV       MOCLDY    31  26  82 E5        30.22S WCI  26
POCATELLO, ID  CLEAR     35  23  61 S14       30.25S WCI  26
BURLEY, ID     PTCLDY    35  24  64 S12       30.21S WCI  27
EVANSTON, WY   CLEAR     20  15  81 S7        30.26F WCI  11
ROCK SPRINGS,  CLEAR     18  11  74 S8        30.26F WCI   8

$$




USA.gov is the U.S. government's official web portal to all federal, state and local government web resources and services.